Location: ???????
(55.7027°N, 37.3832°E)
Time: 01:45:18
(UTC+00:00)

Cosmos 1818 - Pass Details

Date: 14 April 2026
Orbit: 774 x 797 km, 65.0° (Epoch: 20 May)

Event Time Altitude Azimuth Distance (km) Brightness Sun altitude
Rises 22:08:22 0° 312° (NW) 3,310 7.2 -24.2°
Reaches altitude 10° 22:10:51 10° 307° (NW) 2,378 6.3 -24.1°
Enters shadow 22:15:47 49° 246° (WSW) 1,025 3.8 -24.0°
